Date,TemperatureHighF,TemperatureAvgF,TemperatureLowF,DewpointHighF,DewpointAvgF,DewpointLowF,HumidityHigh,HumidityAvg,HumidityLow,PressureMaxIn,PressureMinIn,WindSpeedMaxMPH,WindSpeedAvgMPH,GustSpeedMaxMPH,PrecipitationSumIn
2012-12-1,54,47,42,28,26,23,54,43,34,0.00,40.00,10,5,22,0.00
2012-12-2,54,45,38,29,25,22,59,46,28,0.00,40.00,15,6,26,0.00
2012-12-3,49,40,34,35,27,18,97,60,45,0.00,40.00,9,6,25,0.02
2012-12-4,47,35,26,22,19,15,76,54,33,0.00,40.00,9,4,12,0.01
2012-12-5,49,39,32,22,19,15,56,44,28,0.00,40.00,5,3,9,0.00
2012-12-6,47,39,37,34,24,-100,90,59,41,0.00,40.00,6,4,10,0.00
2012-12-7,45,39,35,35,29,16,93,68,45,0.00,40.00,11,6,20,0.00
2012-12-8,41,35,19,19,17,12,89,48,30,0.00,40.00,18,6,31,0.00
2012-12-9,21,17,11,16,1,-8,91,53,30,0.00,40.00,14,9,21,0.00
2012-12-10,21,15,9,13,9,-3,90,78,55,0.00,40.00,6,4,13,0.00
2012-12-11,30,20,13,17,14,10,90,78,56,0.00,40.00,5,3,9,0.01
2012-12-12,42,32,19,15,14,11,84,51,30,0.00,40.00,9,6,21,0.01
2012-12-13,49,42,33,17,12,8,51,30,25,0.00,40.00,14,7,24,0.00
2012-12-14,36,32,30,30,22,15,97,70,47,0.00,40.00,11,5,17,0.01
2012-12-15,32,29,27,30,27,24,97,91,79,0.00,40.00,9,5,19,0.14
2012-12-16,29,26,25,26,22,16,96,83,67,0.00,40.00,14,9,28,0.01
2012-12-17,33,28,25,23,20,18,75,71,62,0.00,40.00,11,6,20,0.05
2012-12-18,35,32,23,29,24,22,94,71,65,0.00,40.00,14,9,30,0.01
2012-12-19,23,16,9,22,4,-6,94,60,33,0.00,40.00,19,12,33,0.00
2012-12-20,22,10,0,-1,-5,-8,70,53,28,0.00,40.00,10,5,13,0.01
2012-12-21,30,16,5,8,1,-5,67,53,38,0.00,40.00,7,3,10,0.01
2012-12-22,29,19,9,9,7,4,78,60,41,0.00,40.00,8,4,10,0.00
2012-12-23,40,27,16,19,13,8,71,57,41,0.00,40.00,6,3,10,0.02
2012-12-24,29,26,22,28,23,15,96,88,65,0.00,40.00,11,5,17,0.01
2012-12-25,31,21,15,20,12,8,91,71,40,0.00,40.00,13,6,18,0.13
2012-12-26,26,19,14,20,14,9,94,81,67,0.00,40.00,10,5,16,0.03
2012-12-27,26,21,15,20,18,11,94,88,73,0.00,40.00,11,7,21,0.02
2012-12-28,28,17,10,11,8,4,85,68,45,0.00,40.00,7,4,11,0.04
2012-12-29,16,10,4,6,2,0,88,73,51,0.00,40.00,8,5,12,0.01
2012-12-30,24,14,6,15,6,0,91,71,47,0.00,40.00,9,4,12,0.00
2012-12-31,24,18,13,16,11,4,92,76,57,0.00,40.00,10,5,14,0.08